Weather History for Columbus, NE

Change the Weather History Date:

Tuesday, January 15, 2013

  Actual Average Record
Temperature  
Mean Temperature 22 °F -  
Max Temperature 33 °F 32 °F 69 °F (2006)
Min Temperature 12 °F 12 °F -18 °F (2005)
Degree Days  
Heating Degree Days 42    
Moisture  
Dew Point 12 °F    
Average Humidity 64    
Maximum Humidity 79    
Minimum Humidity 48    
Precipitation  
Precipitation 0.00 in - - ()
Sea Level Pressure  
Sea Level Pressure 30.17 in    
Wind  
Wind Speed 7 mph (SW)    
Max Wind Speed 14 mph    
Max Gust Speed 20 mph    
Visibility 10 miles    
Events      
Averages and records for this station are not official NWS values.
T = Trace of Precipitation, MM = Missing Value Source: NWS Daily Summary

Daily Weather History Graph

Daily Weather History Graph

Search for Another Location

Airport:

Trip Planner

Search our weather history database for the weather conditions in past years. The results will help you decide how hot, cold, wet, or windy it might be!

Date:

Astronomy

Jan. 15, 2013 Rise Set
Actual Time 7:53 AM CST 5:25 PM CST
Civil Twilight 7:22 AM CST 5:55 PM CST
Nautical Twilight 6:48 AM CST 6:29 PM CST
Astronomical Twilight 6:15 AM CST 7:02 PM CST
Moon 9:55 AM CST (1/15) 10:20 PM CST (1/15)
Length of Visible Light 10h 32m
Length of Day
9h 31m
Waxing Crescent, 19% of the Moon is Illuminated
Jan 15
Waxing Crescent
Jan 18
First Quarter
Jan 26
Full
Feb 3
Last Quarter
Feb 10
New

Hourly Weather History & Observations

Time (CST) Temp. Windchill Dew Point Humidity Pressure Visibility Wind Dir Wind Speed Gust Speed Precip Events Conditions
12:15 AM 19.4 °F 9.5 °F 8.6 °F 63% 30.30 in 10.0 mi SW 8.1 mph - N/A   Clear
12:35 AM 19.4 °F 10.4 °F 8.6 °F 63% 30.30 in 10.0 mi SW 6.9 mph - N/A   Clear
12:55 AM 19.4 °F 11.5 °F 8.6 °F 63% 30.30 in 10.0 mi SW 5.8 mph - N/A   Scattered Clouds
1:15 AM 17.6 °F 10.7 °F 8.6 °F 68% 30.30 in 10.0 mi SW 4.6 mph - N/A   Partly Cloudy
1:35 AM 17.6 °F 12.3 °F 6.8 °F 63% 30.29 in 10.0 mi WSW 3.5 mph - N/A   Clear
1:55 AM 17.6 °F - 6.8 °F 63% 30.29 in 10.0 mi Calm Calm - N/A   Clear
2:15 AM 12.2 °F - 3.2 °F 67% 30.29 in 10.0 mi Calm Calm - N/A   Clear
2:35 AM 12.2 °F - 5.0 °F 73% 30.29 in 10.0 mi Calm Calm - N/A   Clear
2:55 AM 12.2 °F 6.1 °F 6.8 °F 79% 30.29 in 10.0 mi SSW 3.5 mph - N/A   Clear
3:15 AM 15.8 °F 10.2 °F 8.6 °F 73% 30.28 in 10.0 mi SSW 3.5 mph - N/A   Clear
3:35 AM 15.8 °F 8.6 °F 6.8 °F 68% 30.28 in 10.0 mi SSW 4.6 mph - N/A   Clear
3:55 AM 15.8 °F 8.6 °F 6.8 °F 68% 30.27 in 10.0 mi SW 4.6 mph - N/A   Clear
4:15 AM 15.8 °F 7.2 °F 8.6 °F 73% 30.27 in 10.0 mi SW 5.8 mph - N/A   Clear
4:55 AM 15.8 °F 8.6 °F 8.6 °F 73% 30.26 in 10.0 mi WSW 4.6 mph - N/A   Mostly Cloudy
5:15 AM 15.8 °F 10.2 °F 8.6 °F 73% 30.25 in 10.0 mi WSW 3.5 mph - N/A   Overcast
5:35 AM 15.8 °F 10.2 °F 8.6 °F 73% 30.25 in 10.0 mi West 3.5 mph - N/A   Overcast
5:55 AM 15.8 °F 10.2 °F 8.6 °F 73% 30.26 in 10.0 mi WSW 3.5 mph - N/A   Overcast
6:15 AM 15.8 °F 10.2 °F 8.6 °F 73% 30.25 in 10.0 mi SW 3.5 mph - N/A   Overcast
6:35 AM 15.8 °F 10.2 °F 8.6 °F 73% 30.25 in 10.0 mi WSW 3.5 mph - N/A   Overcast
6:55 AM 15.8 °F - 8.6 °F 73% 30.25 in 10.0 mi Calm Calm - N/A   Mostly Cloudy
7:15 AM 14.0 °F - 6.8 °F 73% 30.25 in 10.0 mi Calm Calm - N/A   Partly Cloudy
7:35 AM 12.2 °F - 5.0 °F 73% 30.25 in 10.0 mi Calm Calm - N/A   Clear
7:55 AM 14.0 °F - 8.6 °F 79% 30.26 in 10.0 mi Calm Calm - N/A   Clear
8:15 AM 14.0 °F 6.5 °F 6.8 °F 73% 30.25 in 10.0 mi SSW 4.6 mph - N/A   Clear
8:35 AM 15.8 °F 8.6 °F 8.6 °F 73% 30.25 in 10.0 mi SSW 4.6 mph - N/A   Clear
8:55 AM 17.6 °F 9.3 °F 8.6 °F 68% 30.25 in 10.0 mi SSW 5.8 mph - N/A   Clear
9:15 AM 19.4 °F 10.4 °F 8.6 °F 63% 30.25 in 10.0 mi SSW 6.9 mph - N/A   Clear
9:35 AM 19.4 °F 7.9 °F 10.4 °F 68% 30.24 in 10.0 mi SSW 10.4 mph - N/A   Clear
9:55 AM 21.2 °F 10.9 °F 10.4 °F 63% 30.24 in 10.0 mi SSW 9.2 mph - N/A   Clear
10:15 AM 23.0 °F 14.7 °F 10.4 °F 59% 30.24 in 10.0 mi SW 6.9 mph - N/A   Clear
10:35 AM 24.8 °F 14.0 °F 12.2 °F 59% 30.23 in 10.0 mi SW 11.5 mph - N/A   Clear
10:55 AM 24.8 °F 13.4 °F 12.2 °F 59% 30.23 in 10.0 mi SSW 12.7 mph - N/A   Clear
11:15 AM 26.6 °F 16.8 °F 12.2 °F 55% 30.22 in 10.0 mi SW 10.4 mph - N/A   Clear
11:35 AM 26.6 °F 16.8 °F 14.0 °F 59% 30.21 in 10.0 mi SW 10.4 mph - N/A   Clear
11:55 AM 28.4 °F 19.7 °F 14.0 °F 55% 30.20 in 10.0 mi SW 9.2 mph - N/A   Clear
12:15 PM 28.4 °F 18.5 °F 15.8 °F 59% 30.19 in 10.0 mi SSW 11.5 mph - N/A   Clear
12:35 PM 30.2 °F 21.3 °F 15.8 °F 55% 30.18 in 10.0 mi SW 10.4 mph - N/A   Clear
12:55 PM 30.2 °F 20.2 °F 15.8 °F 55% 30.17 in 10.0 mi SW 12.7 mph - N/A   Clear
1:35 PM 32.0 °F 23.0 °F 15.8 °F 51% 30.15 in 10.0 mi SW 11.5 mph 17.3 mph N/A   Clear
1:55 PM 32.0 °F 23.0 °F 15.8 °F 51% 30.13 in 10.0 mi SSW 11.5 mph 16.1 mph N/A   Clear
2:15 PM 33.8 °F 25.8 °F 15.8 °F 48% 30.13 in 10.0 mi SSW 10.4 mph 16.1 mph N/A   Clear
2:35 PM 33.8 °F 25.3 °F 15.8 °F 48% 30.12 in 10.0 mi SSW 11.5 mph 16.1 mph N/A   Clear
2:55 PM 33.8 °F 24.8 °F 17.6 °F 52% 30.12 in 10.0 mi SSW 12.7 mph - N/A   Clear
3:15 PM 33.8 °F 25.3 °F 17.6 °F 52% 30.13 in 10.0 mi SSW 11.5 mph 19.6 mph N/A   Clear
3:35 PM 32.0 °F 23.0 °F 17.6 °F 55% 30.11 in 10.0 mi South 11.5 mph - N/A   Clear
3:55 PM 30.2 °F 19.8 °F 17.6 °F 60% 30.11 in 10.0 mi South 13.8 mph 18.4 mph N/A   Clear
4:15 PM 30.2 °F 20.2 °F 15.8 °F 55% 30.12 in 10.0 mi SSW 12.7 mph 19.6 mph N/A   Clear
4:35 PM 30.2 °F 20.2 °F 15.8 °F 55% 30.11 in 10.0 mi SSW 12.7 mph - N/A   Clear
4:55 PM 30.2 °F 19.8 °F 15.8 °F 55% 30.11 in 10.0 mi SSW 13.8 mph 19.6 mph N/A   Clear
5:15 PM 28.4 °F 18.0 °F 15.8 °F 59% 30.11 in 10.0 mi SSW 12.7 mph 16.1 mph N/A   Clear
5:35 PM 26.6 °F 15.7 °F 15.8 °F 64% 30.11 in 10.0 mi SSW 12.7 mph - N/A   Clear
5:55 PM 26.6 °F 16.8 °F 15.8 °F 64% 30.11 in 10.0 mi SSW 10.4 mph - N/A   Clear
6:15 PM 26.6 °F 17.5 °F 15.8 °F 64% 30.11 in 10.0 mi SSW 9.2 mph - N/A   Clear
6:35 PM 24.8 °F 15.3 °F 15.8 °F 69% 30.10 in 10.0 mi SSW 9.2 mph - N/A   Clear
6:55 PM 24.8 °F 14.0 °F 15.8 °F 69% 30.09 in 10.0 mi SSW 11.5 mph - N/A   Clear
7:15 PM 26.6 °F 17.5 °F 15.8 °F 64% 30.09 in 10.0 mi SW 9.2 mph - N/A   Clear
7:35 PM 26.6 °F 16.8 °F 15.8 °F 64% 30.08 in 10.0 mi SSW 10.4 mph - N/A   Clear
7:55 PM 24.8 °F 14.0 °F 15.8 °F 69% 30.08 in 10.0 mi SW 11.5 mph - N/A   Clear
8:15 PM 24.8 °F 14.6 °F 15.8 °F 69% 30.07 in 10.0 mi SW 10.4 mph - N/A   Clear
8:35 PM 24.8 °F 14.0 °F 14.0 °F 64% 30.06 in 10.0 mi SW 11.5 mph - N/A   Clear
8:55 PM 24.8 °F 14.6 °F 14.0 °F 64% 30.06 in 10.0 mi SW 10.4 mph - N/A   Clear
9:15 PM 24.8 °F 15.3 °F 14.0 °F 64% 30.05 in 10.0 mi SW 9.2 mph - N/A   Clear
9:35 PM 23.0 °F 11.7 °F 14.0 °F 68% 30.04 in 10.0 mi SSW 11.5 mph - N/A   Clear
9:55 PM 23.0 °F 11.7 °F 12.2 °F 63% 30.03 in 10.0 mi SSW 11.5 mph - N/A   Clear
10:15 PM 23.0 °F 11.1 °F 12.2 °F 63% 30.02 in 10.0 mi SSW 12.7 mph 17.3 mph N/A   Clear
10:35 PM 23.0 °F 11.7 °F 12.2 °F 63% 30.01 in 10.0 mi SSW 11.5 mph - N/A   Clear
10:55 PM 23.0 °F 12.4 °F 12.2 °F 63% 30.01 in 10.0 mi SW 10.4 mph - N/A   Clear
11:15 PM 23.0 °F 11.1 °F 10.4 °F 59% 30.00 in 10.0 mi SW 12.7 mph - N/A   Clear
11:35 PM 23.0 °F 11.7 °F 10.4 °F 59% 29.99 in 10.0 mi SW 11.5 mph - N/A   Clear
11:55 PM 23.0 °F 12.4 °F 10.4 °F 59% 29.99 in 10.0 mi SW 10.4 mph - N/A   Clear